| time (UTC) | temp C | wind direction | speed KPH | gust KPH | rain 1hr cm | rain 24hr cm | rain mn cm | humidity % | barometer mb |
| 20260503190150 | 14 | 238 | 32.2 | 0.0 | 0.00 | 0.00 | 0.00 | 50 | 984.8 |
| 20260503184616 | 14 | 236 | 32.2 | 0.0 | 0.00 | 0.00 | 0.00 | 43 | 985.5 |
| 20260503183626 | 15 | 236 | 30.6 | 0.0 | 0.00 | 0.00 | 0.00 | 43 | 985.5 |
| 20260503181614 | 15 | 237 | 32.2 | 0.0 | 0.00 | 0.00 | 0.00 | 45 | 985.8 |
| 20260503180155 | 15 | 232 | 30.6 | 0.0 | 0.00 | 0.00 | 0.00 | 45 | 985.8 |
| 20260503174613 | 15 | 238 | 32.2 | 0.0 | 0.00 | 0.00 | 0.00 | 42 | 986.3 |
| 20260503173134 | 15 | 237 | 32.2 | 0.0 | 0.00 | 0.00 | 0.00 | 40 | 985.6 |
| 20260503170144 | 15 | 236 | 32.2 | 0.0 | 0.00 | 0.00 | 0.00 | 40 | 985.6 |
| 20260503160154 | 13 | 233 | 27.4 | 0.0 | 0.00 | 0.00 | 0.00 | 49 | 985.2 |
| 20260503150150 | 11 | 240 | 19.3 | 0.0 | 0.00 | 0.00 | 0.00 | 57 | 986.1 |
| 20260503140200 | 10 | 227 | 22.5 | 0.0 | 0.00 | 0.00 | 0.00 | 59 | 986.1 |
| 20260503130148 | 6 | 222 | 12.9 | 0.0 | 0.00 | 0.00 | 0.00 | 69 | 986.4 |
| 20260503120200 | 5 | 209 | 12.9 | 0.0 | 0.00 | 0.00 | 0.00 | 71 | 986.7 |
| 20260503110148 | 2 | 197 | 9.7 | 0.0 | 0.00 | 0.00 | 0.00 | 77 | 985.8 |
| 20260503100150 | 1 | 191 | 8.0 | 0.0 | 0.00 | 0.00 | 0.00 | 79 | 985.7 |
| 20260503090145 | 1 | 193 | 8.0 | 0.0 | 0.00 | 0.00 | 0.00 | 74 | 985.9 |
| 20260503081614 | 1 | 190 | 9.7 | 0.0 | 0.00 | 0.00 | 0.00 | 71 | 986.4 |
| 20260503080141 | 1 | 187 | 8.0 | 0.0 | 0.00 | 0.00 | 0.00 | 71 | 985.9 |
| 20260503071614 | 1 | 174 | 9.7 | 0.0 | 0.00 | 0.00 | 0.00 | 70 | 986.6 |
| 20260503070144 | 1 | 182 | 8.0 | 0.0 | 0.00 | 0.00 | 0.00 | 70 | 986.6 |
| 20260503060203 | 2 | 180 | 6.4 | 0.0 | 0.00 | 0.00 | 0.00 | 70 | 987.5 |
| 20260503054614 | 2 | 177 | 6.4 | 0.0 | 0.00 | 0.00 | 0.00 | 72 | 988.0 |
| 20260503051614 | 1 | 171 | 6.4 | 0.0 | 0.00 | 0.00 | 0.00 | 74 | 988.3 |
| 20260503050144 | 1 | 174 | 6.4 | 0.0 | 0.00 | 0.00 | 0.00 | 74 | 988.3 |
| 20260503044613 | 2 | 177 | 6.4 | 0.0 | 0.00 | 0.00 | 0.00 | 73 | 988.5 |
| 20260503043133 | 2 | 174 | 6.4 | 0.0 | 0.00 | 0.00 | 0.00 | 73 | 988.0 |
| 20260503041614 | 2 | 167 | 4.8 | 0.0 | 0.00 | 0.00 | 0.00 | 73 | 988.0 |
| 20260503040147 | 2 | 177 | 6.4 | 0.0 | 0.00 | 0.00 | 0.00 | 73 | 988.0 |
| 20260503034614 | 2 | 180 | 6.4 | 0.0 | 0.00 | 0.00 | 0.00 | 69 | 989.2 |
| 20260503033135 | 2 | 183 | 6.4 | 0.0 | 0.00 | 0.00 | 0.00 | 71 | 989.3 |
| 20260503031614 | 3 | 180 | 6.4 | 0.0 | 0.00 | 0.00 | 0.00 | 71 | 989.3 |
| 20260503030146 | 3 | 183 | 6.4 | 0.0 | 0.00 | 0.00 | 0.00 | 71 | 989.3 |
| 20260503024614 | 3 | 171 | 6.4 | 0.0 | 0.00 | 0.00 | 0.00 | 67 | 990.0 |
| 20260503023133 | 3 | 177 | 6.4 | 0.0 | 0.00 | 0.00 | 0.00 | 72 | 989.8 |
| 20260503021614 | 3 | 202 | 6.4 | 0.0 | 0.00 | 0.00 | 0.00 | 72 | 989.7 |
| 20260503020143 | 3 | 209 | 6.4 | 0.0 | 0.00 | 0.00 | 0.00 | 72 | 989.7 |
| 20260503014614 | 4 | 223 | 6.4 | 0.0 | 0.00 | 0.00 | 0.00 | 62 | 989.2 |
| 20260503013132 | 4 | 234 | 6.4 | 0.0 | 0.00 | 0.00 | 0.00 | 62 | 989.2 |
| 20260503011614 | 5 | 234 | 6.4 | 0.0 | 0.00 | 0.00 | 0.00 | 62 | 989.2 |
| 20260503010144 | 5 | 242 | 6.4 | 0.0 | 0.00 | 0.00 | 0.00 | 62 | 989.2 |
| 20260503004613 | 5 | 246 | 6.4 | 0.0 | 0.00 | 0.00 | 0.00 | 47 | 990.0 |
| 20260503003127 | 6 | 241 | 6.4 | 0.0 | 0.00 | 0.00 | 0.00 | 48 | 990.1 |
| 20260503001614 | 6 | 250 | 4.8 | 0.0 | 0.00 | 0.00 | 0.00 | 48 | 990.1 |
| 20260503000149 | 7 | 266 | 4.8 | 0.0 | 0.00 | 0.00 | 0.00 | 48 | 990.1 |
| 20260502234616 | 7 | 283 | 6.4 | 0.0 | 0.00 | 0.00 | 0.00 | 38 | 990.1 |
| 20260502233127 | 7 | 285 | 9.7 | 0.0 | 0.00 | 0.00 | 0.00 | 39 | 990.1 |
| 20260502231615 | 7 | 287 | 9.7 | 0.0 | 0.00 | 0.00 | 0.00 | 39 | 990.1 |
| 20260502230142 | 8 | 285 | 11.3 | 0.0 | 0.00 | 0.00 | 0.00 | 39 | 990.1 |
| 20260502224615 | 8 | 285 | 12.9 | 0.0 | 0.00 | 0.00 | 0.00 | 39 | 990.4 |
| 20260502223133 | 8 | 285 | 14.5 | 0.0 | 0.00 | 0.00 | 0.00 | 38 | 991.2 |
| 20260502221615 | 8 | 284 | 14.5 | 0.0 | 0.00 | 0.00 | 0.00 | 38 | 991.2 |
| 20260502220142 | 8 | 284 | 16.1 | 0.0 | 0.00 | 0.00 | 0.00 | 38 | 991.2 |
| 20260502214615 | 8 | 285 | 16.1 | 0.0 | 0.00 | 0.00 | 0.00 | 40 | 991.2 |
| 20260502213133 | 8 | 282 | 14.5 | 0.0 | 0.00 | 0.00 | 0.00 | 41 | 990.8 |
| 20260502211615 | 8 | 278 | 14.5 | 0.0 | 0.00 | 0.00 | 0.00 | 41 | 990.8 |
| 20260502210144 | 8 | 275 | 14.5 | 0.0 | 0.00 | 0.00 | 0.00 | 41 | 990.8 |
| 20260502204614 | 8 | 275 | 16.1 | 0.0 | 0.00 | 0.00 | 0.00 | 37 | 991.3 |
| 20260502203133 | 8 | 275 | 14.5 | 0.0 | 0.00 | 0.00 | 0.00 | 37 | 991.8 |
| 20260502201615 | 8 | 279 | 14.5 | 0.0 | 0.00 | 0.00 | 0.00 | 37 | 991.7 |
| 20260502200141 | 8 | 281 | 14.5 | 0.0 | 0.00 | 0.00 | 0.00 | 37 | 991.7 |
| 20260502194615 | 8 | 283 | 16.1 | 0.0 | 0.00 | 0.00 | 0.00 | 38 | 991.9 |
| 20260502193128 | 8 | 285 | 16.1 | 0.0 | 0.00 | 0.00 | 0.00 | 38 | 991.9 |
| 20260502191615 | 8 | 288 | 17.7 | 0.0 | 0.00 | 0.00 | 0.00 | 38 | 991.9 |